[[{"header":{"parameterUnit":"m.s-1","parameterCategory":1,"la1":30.2991,"la2":30.254,"lo1":-89.0895,"lo2":-89.0444,"dy":0.0017,"dx":0.0017,"nx":28,"ny":28,"refTime":"2023-04-08T21:00:00:Z","depth":0,"parameterNumber":2,"parameterNumberName":"U-component_of_WINDS"},"data":[0,0,0,0,0,0,0,0,0,0,0,0,0,0,0,0,0,0,0,0,0,0,0,0,0,0,0,0,0,0,0,0,0,0,0,0,0,0,0,0,0,0,0,0,0,0,0,0,0,0,0,0,0,0,0,0,0,0,-5.3717,-5.3719,0,-5.3831,-5.3832,-5.3834,-5.374,-5.3736,-5.3732,-5.3729,-5.3849,-5.3856,-5.3863,0,0,0,0,0,0,0,0,0,0,0,0,0,-5.3425,-5.3431,-5.3717,-5.3719,-5.372,-5.3831,-5.3832,-5.3834,-5.3741,-5.3736,-5.3731,-5.3727,-5.3847,-5.3855,-5.3864,0,0,0,0,0,0,0,0,0,0,0,0,0,-5.3547,-5.3432,-5.3717,-5.3687,-5.3685,-5.383,-5.3832,-5.3834,-5.3742,-5.3736,-5.373,-5.3725,-5.3844,-5.3854,-5.3865,-5.4047,0,0,-5.3896,-5.3901,0,0,0,0,0,0,0,0,-5.354,-5.3557,-5.369,-5.3689,-5.3688,-5.3765,-5.3773,-5.3906,-5.3743,-5.3721,-5.3728,-5.3722,-5.3827,-5.3838,-5.3872,-5.4052,-5.4058,-5.3897,-5.3903,-5.3908,-5.3911,0,0,0,0,0,0,0,-5.3531,-5.3552,-5.3762,-5.3692,-5.3691,-5.3669,-5.368,-5.3798,-5.3806,-5.3722,-5.3716,-5.373,-5.3825,-5.3863,-5.3875,-5.4059,-5.3897,-5.3906,-5.3912,-5.3916,-5.4397,-5.4403,0,0,0,0,0,0,-5.3525,-5.3546,-5.3759,-5.3766,-5.3598,-5.3679,-5.3691,-5.3746,-5.3804,-5.3807,-5.3735,-5.3725,-5.3848,-5.3863,-5.3878,-5.4097,-5.3908,-5.3917,-5.3923,-5.439,-5.4398,-5.4405,0,0,0,0,0,0,-5.3519,-5.3545,-5.3754,-5.3654,-5.3679,-5.3691,-5.3753,-5.3752,-5.3789,-5.3814,-5.3815,-5.3772,-5.3844,-5.3864,-5.4006,-5.41,-5.3922,-5.3932,-5.4382,-5.4393,-5.4402,-5.4534,0,0,0,0,0,0,-5.3511,-5.3544,-5.3612,-5.3656,-5.3685,-5.3879,-5.3759,-5.3758,-5.3807,-5.3795,-5.3849,-5.3852,-5.3841,-5.3991,-5.4016,-5.4111,-5.394,-5.4374,-5.4387,-5.4399,-5.4522,-5.4548,-5.457,0,0,0,0,0,-5.3501,-5.3645,-5.3616,-5.3642,-5.377,-5.3884,-5.39,-5.3883,-5.3815,-5.3884,-5.39,-5.385,-5.4085,-5.4006,-5.4034,-5.4133,-5.4368,-5.4383,-5.4398,-5.4511,-5.4542,-5.4569,0,0,0,0,0,0,-5.3613,-5.365,-5.3618,-5.378,-5.383,-5.3868,-5.3955,-5.3917,-5.3988,-5.3974,-5.3951,-5.3964,-5.4114,-5.4137,-5.4049,-5.4313,-5.4216,-5.4237,-5.4293,-5.4323,-5.4346,-5.4338,-5.3948,0,0,0,0,0,-5.3656,-5.3744,-5.3773,-5.3913,-5.3939,-5.3943,-5.3992,-5.3975,-5.4026,-5.4047,-5.4072,-5.4125,-5.4211,-5.4268,-5.4348,-5.4524,-5.4536,-5.4606,-5.463,-5.465,-5.4669,-5.4766,-5.4798,-5.4454,-5.4454,-5.4453,0,0,-5.3747,-5.3778,-5.3835,-5.3936,-5.3972,-5.4066,-5.3962,-5.4065,-5.4135,-5.4063,-5.4198,-5.422,-5.4277,-5.4437,-5.4509,-5.4461,-5.4766,-5.4669,-5.4684,-5.4692,-5.4784,-5.4817,-5.4846,-5.4464,-5.4462,-5.446,0,0,-5.396,-5.3992,-5.4113,-5.4151,-5.4207,-5.4209,-5.4238,-5.4283,-5.4294,-5.4429,-5.4378,-5.4461,-5.4609,-5.4652,-5.4693,-5.4925,-5.4882,-5.4951,-5.5077,-5.5172,-5.5199,-5.5223,-5.5308,-5.5338,-5.497,-5.497,-5.497,0,-5.4066,-5.4203,-5.418,-5.4288,-5.4335,-5.4273,-5.4397,-5.4435,-5.4515,-5.455,-5.4494,-5.4679,-5.4713,-5.4884,-5.4941,-5.4976,-5.501,-5.4946,-5.5197,-5.5221,-5.5243,-5.5323,-5.5355,-5.4978,-5.4977,-5.4977,-5.4976,0,-5.4332,-5.4429,-5.452,-5.4598,-5.4655,-5.477,-5.4766,-5.4827,-5.4805,-5.4813,-5.4953,-5.4992,-5.508,-5.5118,-5.5098,-5.5288,-5.5256,-5.52,-5.5102,-5.5284,-5.536,-5.539,-5.499,-5.4987,-5.4985,-5.4983,0,0,-5.4619,-5.4683,-5.4717,-5.4752,-5.4809,-5.4884,-5.4998,-5.5082,-5.5136,-5.5193,-5.5289,-5.5416,-5.5364,-5.5411,-5.5395,-5.5479,-5.5662,-5.5412,-5.5413,-5.5459,-5.5875,-5.5918,-5.5954,-5.5633,-5.5639,-5.5644,-5.5871,0,-5.4836,-5.5031,-5.5015,-5.5201,-5.5291,-5.5233,-5.5332,-5.538,-5.5391,-5.547,-5.5482,-5.5573,-5.5497,-5.5526,-5.5605,-5.5623,-5.5745,-5.5606,-5.5725,-5.5729,-5.5713,-5.5993,-5.6039,-5.6252,-5.59,-5.5905,-5.5908,0,-5.5115,-5.5182,-5.5376,-5.5421,-5.5458,-5.5548,-5.5625,-5.57,-5.5753,-5.5756,-5.5809,-5.578,-5.5896,-5.5794,-5.5955,-5.5861,-5.5909,-5.5925,-5.5933,-5.5944,-5.5831,-5.6014,-5.6319,-5.6351,-5.5954,-5.595,-5.5947,0,-5.5307,-5.5445,-5.558,-5.5612,-5.5667,-5.5731,-5.5758,-5.5805,-5.5857,-5.5925,-5.5959,-5.604,-5.6085,-5.6149,-5.6144,-5.607,-5.6308,-5.6206,-5.6315,-5.6316,-5.6369,-5.6366,-5.6688,-5.6398,-5.6397,-5.6397,-5.6396,0,-5.5552,-5.5674,-5.5667,-5.575,-5.5886,-5.5866,-5.6001,-5.6021,-5.6063,-5.615,-5.6106,-5.6189,-5.6176,-5.626,-5.6256,-5.6391,-5.6412,-5.6418,-5.6416,-5.6423,-5.6423,-5.6455,-5.6441,-5.6405,-5.6403,-5.6402,-5.64,0,-5.579,-5.579,-5.5933,-5.5974,-5.5987,-5.6086,-5.6121,-5.6201,-5.6208,-5.6319,-5.6344,-5.6357,-5.6454,-5.6454,-5.6564,-5.6562,-5.6728,-5.6708,-5.671,-5.6707,-5.6817,-5.6808,-5.7172,-5.722,-5.6897,-5.69,-5.6903,0,-5.5947,-5.6039,-5.609,-5.6145,-5.6175,-5.6264,-5.6317,-5.6301,-5.6359,-5.6427,-5.6499,-5.6591,-5.6664,-5.6822,-5.6842,-5.6927,-5.691,-5.7032,-5.6923,-5.6928,-5.6915,-5.691,-5.692,-5.7054,-5.7058,-5.7061,-5.7063,0,-5.6227,-5.6222,-5.6299,-5.6378,-5.6442,-5.6504,-5.656,-5.6608,-5.6599,-5.6667,-5.6764,-5.6821,-5.6934,-5.7027,-5.7109,-5.7138,-5.7101,-5.7097,-5.7127,-5.7136,-5.7134,-5.7139,-5.677,-5.7089,-5.7087,-5.7085,-5.7083,-5.7082,-5.643,-5.651,-5.6558,-5.6647,-5.6687,-5.6741,-5.6819,-5.6835,-5.6916,-5.7006,-5.6992,-5.7102,-5.7155,-5.7261,-5.7298,-5.7385,-5.7342,-5.7386,-5.7397,-5.7408,-5.7421,-5.7119,-5.7399,-5.7399,-5.7398,-5.7397,-5.7397,0,-5.6708,-5.6737,-5.6818,-5.6898,-5.6969,-5.6925,-5.6985,-5.7048,-5.7144,-5.7196,-5.7268,-5.7382,-5.7473,-5.75,-5.7588,-5.7653,-5.7638,-5.7676,-5.7672,-5.768,-5.7453,-5.7419,-5.7687,-5.7687,-5.7687,-5.7687,-5.7687,-5.7687,-5.6862,-5.6995,-5.6997,-5.7151,-5.7179,-5.7285,-5.7324,-5.7374,-5.7415,-5.7544,-5.7618,-5.7635,-5.7677,-5.7768,-5.785,-5.7856,-5.7891,-5.7938,-5.7937,-5.7725,-5.7696,-5.7668,-5.7636,-5.7945,-5.7945,-5.8157,-5.8159,-5.816]},{"header":{"parameterUnit":"m.s-1","parameterCategory":1,"la1":30.2991,"la2":30.254,"lo1":-89.0895,"lo2":-89.0444,"dy":0.0017,"dx":0.0017,"nx":28,"ny":28,"refTime":"2023-04-08T21:00:00:Z","depth":0,"parameterNumber":3,"parameterNumberName":"V-component_of_WINDS"},"data":[0,0,0,0,0,0,0,0,0,0,0,0,0,0,0,0,0,0,0,0,0,0,0,0,0,0,0,0,0,0,0,0,0,0,0,0,0,0,0,0,0,0,0,0,0,0,0,0,0,0,0,0,0,0,0,0,0,0,-3.715,-3.715,0,-3.7089,-3.7088,-3.7088,-3.696,-3.6957,-3.6955,-3.6952,-3.6892,-3.6893,-3.6894,0,0,0,0,0,0,0,0,0,0,0,0,0,-3.7158,-3.7158,-3.715,-3.7149,-3.7149,-3.7089,-3.7088,-3.7088,-3.696,-3.6957,-3.6954,-3.6951,-3.6892,-3.6893,-3.6894,0,0,0,0,0,0,0,0,0,0,0,0,0,-3.7131,-3.7158,-3.715,-3.7078,-3.7071,-3.7089,-3.7088,-3.7087,-3.6961,-3.6957,-3.6953,-3.695,-3.6892,-3.6893,-3.6894,-3.6979,0,0,-3.6898,-3.6898,0,0,0,0,0,0,0,0,-3.7133,-3.7131,-3.7089,-3.7083,-3.7075,-3.7028,-3.7069,-3.7051,-3.6962,-3.7003,-3.6952,-3.6948,-3.6941,-3.6938,-3.6935,-3.6976,-3.6974,-3.6898,-3.6899,-3.6899,-3.69,0,0,0,0,0,0,0,-3.7135,-3.7133,-3.7126,-3.7089,-3.708,-3.7049,-3.7041,-3.7065,-3.6994,-3.6999,-3.699,-3.6984,-3.6936,-3.6934,-3.6933,-3.6973,-3.6898,-3.6899,-3.69,-3.69,-3.7078,-3.7082,0,0,0,0,0,0,-3.7147,-3.7136,-3.7128,-3.7124,-3.7095,-3.7052,-3.7043,-3.7047,-3.6994,-3.6982,-3.6987,-3.6978,-3.6934,-3.6931,-3.693,-3.7024,-3.6899,-3.69,-3.6901,-3.7074,-3.7079,-3.7083,0,0,0,0,0,0,-3.7148,-3.7148,-3.713,-3.7127,-3.7123,-3.7056,-3.7062,-3.7048,-3.7046,-3.6985,-3.6972,-3.6998,-3.6931,-3.6928,-3.6967,-3.702,-3.6901,-3.6902,-3.7069,-3.7075,-3.7081,-3.7214,0,0,0,0,0,0,-3.7149,-3.7149,-3.718,-3.7129,-3.7123,-3.7169,-3.7065,-3.705,-3.7048,-3.7035,-3.6991,-3.698,-3.6928,-3.6966,-3.6968,-3.702,-3.6903,-3.7064,-3.7072,-3.7079,-3.7205,-3.7224,-3.7241,0,0,0,0,0,-3.7149,-3.7221,-3.7182,-3.7182,-3.7161,-3.7172,-3.7169,-3.7106,-3.7053,-3.7084,-3.7044,-3.6982,-3.7014,-3.6971,-3.6972,-3.7025,-3.7061,-3.707,-3.7078,-3.7197,-3.722,-3.724,0,0,0,0,0,0,-3.7282,-3.7213,-3.717,-3.7227,-3.7206,-3.715,-3.7188,-3.7133,-3.7128,-3.7116,-3.7039,-3.703,-3.7079,-3.7056,-3.7009,-3.7103,-3.7027,-3.7037,-3.7117,-3.7138,-3.7156,-3.7161,-3.6904,0,0,0,0,0,-3.7318,-3.7332,-3.7271,-3.7328,-3.7319,-3.7256,-3.7258,-3.7211,-3.7187,-3.7178,-3.7141,-3.7121,-3.7125,-3.7131,-3.7132,-3.7201,-3.7189,-3.7238,-3.7255,-3.727,-3.728,-3.7313,-3.7333,-3.7113,-3.7113,-3.7112,0,0,-3.7392,-3.7356,-3.737,-3.7353,-3.7332,-3.7348,-3.7249,-3.7271,-3.7282,-3.7181,-3.7215,-3.7187,-3.7159,-3.7213,-3.7234,-3.7195,-3.7338,-3.7282,-3.7294,-3.7295,-3.7324,-3.7345,-3.7364,-3.7119,-3.7118,-3.7117,0,0,-3.7536,-3.7511,-3.7554,-3.7533,-3.7501,-3.7458,-3.7469,-3.7421,-3.7398,-3.7431,-3.7354,-3.7367,-3.7378,-3.736,-3.7353,-3.7488,-3.743,-3.749,-3.7584,-3.7617,-3.7634,-3.7649,-3.7696,-3.7714,-3.75,-3.75,-3.75,0,-3.7633,-3.7653,-3.7583,-3.7609,-3.7604,-3.7511,-3.7554,-3.7538,-3.7509,-3.7507,-3.7463,-3.7473,-3.7448,-3.7495,-3.7528,-3.7525,-3.7535,-3.7495,-3.7637,-3.7651,-3.7664,-3.7708,-3.7727,-3.7508,-3.7507,-3.7506,-3.7505,0,-3.7773,-3.7789,-3.7828,-3.78,-3.7799,-3.7834,-3.7769,-3.7776,-3.7729,-3.769,-3.7724,-3.7689,-3.7682,-3.7689,-3.7644,-3.773,-3.7706,-3.7651,-3.7573,-3.7694,-3.7734,-3.7751,-3.7518,-3.7516,-3.7513,-3.7512,0,0,-3.8,-3.7931,-3.7947,-3.7932,-3.7889,-3.79,-3.793,-3.7921,-3.7928,-3.7911,-3.7933,-3.7944,-3.7891,-3.7883,-3.7835,-3.7864,-3.7972,-3.7805,-3.7803,-3.7836,-3.8063,-3.8104,-3.8125,-3.7933,-3.7936,-3.7938,-3.8065,0,-3.8133,-3.818,-3.8117,-3.8177,-3.819,-3.8102,-3.8127,-3.8104,-3.8069,-3.8074,-3.8035,-3.8043,-3.7974,-3.7968,-3.7993,-3.7953,-3.8016,-3.7943,-3.7953,-3.7954,-3.7963,-3.8146,-3.819,-3.8311,-3.808,-3.8082,-3.8084,0,-3.8295,-3.8284,-3.8346,-3.8296,-3.8299,-3.8324,-3.8309,-3.8316,-3.8287,-3.8259,-3.8249,-3.8191,-3.8217,-3.8141,-3.8175,-3.8127,-3.8127,-3.8108,-3.8111,-3.811,-3.8027,-3.8149,-3.8349,-3.8367,-3.8109,-3.8107,-3.8105,0,-3.8453,-3.8453,-3.8489,-3.848,-3.8424,-3.8443,-3.8421,-3.8388,-3.8386,-3.8374,-3.8371,-3.8363,-3.8359,-3.8353,-3.8294,-3.8245,-3.8335,-3.8255,-3.8312,-3.8314,-3.8335,-3.8335,-3.8538,-3.8337,-3.8337,-3.8336,-3.8336,0,-3.8608,-3.865,-3.8559,-3.8582,-3.8625,-3.8551,-3.8596,-3.8565,-3.8536,-3.8551,-3.8474,-3.849,-3.8411,-3.8418,-3.8372,-3.8406,-3.8405,-3.8383,-3.837,-3.8389,-3.8392,-3.8388,-3.8378,-3.8341,-3.834,-3.8339,-3.8338,0,-3.8792,-3.8734,-3.8767,-3.8711,-3.8697,-3.8731,-3.8683,-3.8701,-3.866,-3.868,-3.868,-3.8616,-3.862,-3.856,-3.8553,-3.8522,-3.8577,-3.855,-3.8587,-3.8578,-3.8638,-3.8633,-3.8846,-3.8869,-3.8654,-3.8657,-3.8658,0,-3.8895,-3.8924,-3.887,-3.8874,-3.8855,-3.8862,-3.8859,-3.8788,-3.8788,-3.8756,-3.8778,-3.8775,-3.877,-3.878,-3.8733,-3.8727,-3.8698,-3.8773,-3.8697,-3.8715,-3.8698,-3.8697,-3.8699,-3.8789,-3.8792,-3.8794,-3.8796,0,-3.9083,-3.9052,-3.905,-3.9038,-3.9036,-3.9023,-3.9006,-3.9013,-3.8935,-3.8939,-3.8942,-3.8937,-3.8928,-3.8927,-3.8911,-3.8888,-3.883,-3.882,-3.8833,-3.8853,-3.8873,-3.8862,-3.863,-3.8816,-3.8814,-3.8812,-3.8811,-3.8811,-3.9229,-3.925,-3.9214,-3.9214,-3.9193,-3.9178,-3.9192,-3.9152,-3.9152,-3.9139,-3.9097,-3.9106,-3.9075,-3.9047,-3.903,-3.9036,-3.8999,-3.9018,-3.9023,-3.9028,-3.9039,-3.8872,-3.9033,-3.9032,-3.9032,-3.9031,-3.9031,0,-3.9412,-3.9384,-3.9385,-3.9362,-3.9362,-3.9305,-3.9282,-3.9286,-3.9295,-3.927,-3.9265,-3.9267,-3.9264,-3.9217,-3.9208,-3.9223,-3.9195,-3.9223,-3.9221,-3.9216,-3.9073,-3.9062,-3.9245,-3.9245,-3.9245,-3.9245,-3.9245,-3.9245,-3.9507,-3.9539,-3.9504,-3.9525,-3.9496,-3.9504,-3.9496,-3.9481,-3.9461,-3.9466,-3.9463,-3.9431,-3.9397,-3.9385,-3.938,-3.9366,-3.9366,-3.9403,-3.938,-3.9247,-3.9227,-3.9207,-3.9196,-3.9404,-3.9404,-3.9522,-3.9523,-3.9524]}]]